GW0416 Weather Reports


time (UTC)temp
F
wind
direction
speed
knots
gust
knots
rain 1hr
in
rain 24hr
in
rain mn
in
humidity
%
barometer
mb
20260906154537 56 360 7.0 13.0 0.00 0.00 0.00 89 1019.3
20260906153041 56 300 8.7 13.9 0.00 0.00 0.00 88 1019.4
20260906151542 58 15 6.1 10.4 0.00 0.00 0.00 90 1019.2
20260906150037 57 32 7.8 12.2 0.00 0.00 0.00 90 1019.2
20260906144542 57 26 8.7 13.9 0.00 0.00 0.00 92 1019.1
20260906143050 56 15 10.4 13.9 0.00 0.00 0.00 92 1018.8
20260906141544 56 31 7.0 10.4 0.00 0.00 0.00 93 1019.2
20260906140040 55 26 6.1 9.6 0.00 0.00 0.00 93 1019.2
20260906134535 55 34 8.7 11.3 0.00 0.00 0.00 94 1018.8
20260906133053 54 28 7.8 9.6 0.00 0.00 0.00 94 1018.7
20260906131538 54 32 7.0 9.6 0.00 0.00 0.00 94 1018.8
20260906130036 54 20 7.8 10.4 0.00 0.00 0.00 93 1019.3
20260906124536 54 13 7.8 13.9 0.00 0.00 0.00 93 1019.2
20260906123039 54 26 12.2 15.6 0.00 0.00 0.00 94 1018.8
20260906121541 54 17 11.3 14.8 0.00 0.00 0.00 93 1018.9
20260906120039 54 12 12.2 15.6 0.00 0.00 0.00 93 1019.1
20260906114544 54 26 13.0 16.5 0.00 0.00 0.00 93 1018.9
20260906113039 54 22 10.4 14.8 0.00 0.00 0.00 93 1019.0
20260906111543 54 17 12.2 14.8 0.00 0.00 0.00 93 1019.1
20260906110037 54 20 12.2 18.2 0.00 0.00 0.00 93 1019.1
20260906104535 54 13 12.2 19.1 0.00 0.00 0.00 93 1019.1
20260906103035 54 32 14.8 19.1 0.00 0.00 0.00 93 1019.2
20260906101543 54 15 13.0 17.4 0.00 0.00 0.00 93 1019.5
20260906100039 54 360 14.8 20.0 0.00 0.00 0.00 93 1019.2
20260906094536 53 11 13.0 20.9 0.00 0.00 0.00 93 1019.2
20260906093038 53 17 16.5 20.9 0.00 0.00 0.00 93 1019.2
20260906091535 53 13 17.4 22.6 0.00 0.00 0.00 93 1019.2
20260906090035 54 14 17.4 21.7 0.00 0.00 0.00 92 1019.5
20260906084538 53 13 16.5 21.7 0.00 0.00 0.00 92 1019.6
20260906083038 54 16 13.9 20.9 0.00 0.00 0.00 91 1019.6
20260906081536 54 5 17.4 21.7 0.00 0.00 0.00 90 1019.6
20260906080034 54 18 14.8 21.7 0.00 0.00 0.00 89 1019.8
20260906074537 55 28 16.5 23.5 0.00 0.00 0.00 89 1019.9
20260906073037 55 23 15.6 22.6 0.00 0.00 0.00 88 1020.2
20260906071535 55 26 16.5 21.7 0.00 0.00 0.00 88 1020.2
20260906070035 55 12 15.6 20.9 0.00 0.00 0.00 87 1020.2
20260906064535 56 14 15.6 20.0 0.00 0.00 0.00 86 1020.6
20260906063033 55 10 13.0 18.2 0.00 0.00 0.00 87 1020.6
20260906061538 56 18 15.6 20.9 0.00 0.00 0.00 86 1020.7
20260906060038 56 25 14.8 20.9 0.00 0.00 0.00 85 1020.6
20260906054552 56 24 16.5 20.9 0.00 0.00 0.00 85 1020.6
20260906053034 56 28 16.5 25.2 0.00 0.00 0.00 85 1020.3
20260906051556 56 22 19.1 24.3 0.00 0.00 0.00 85 1020.4
20260906050037 56 19 16.5 25.2 0.00 0.00 0.00 84 1020.6
20260906044533 57 15 16.5 23.5 0.00 0.00 0.00 83 1020.6
20260906043035 57 28 17.4 23.5 0.00 0.00 0.00 82 1019.9
20260906041535 57 10 19.1 26.9 0.00 0.00 0.00 80 1019.5
20260906040103 58 34 19.1 25.2 0.00 0.00 0.00 79 1019.9
20260906034534 58 15 20.9 26.1 0.00 0.00 0.00 75 1020.1
20260906033051 59 15 17.4 25.2 0.00 0.00 0.00 73 1020.3
20260906031536 59 13 20.9 26.1 0.00 0.00 0.00 74 1019.7
20260906030036 58 17 20.0 24.3 0.00 0.00 0.00 74 1019.2
20260906024534 59 24 17.4 24.3 0.00 0.00 0.00 72 1019.0
20260906023035 59 15 18.2 23.5 0.00 0.00 0.00 71 1018.8
20260906021535 60 22 19.1 24.3 0.00 0.00 0.00 70 1018.8
20260906020036 60 19 19.1 25.2 0.00 0.00 0.00 70 1018.8
20260906014535 61 19 19.1 24.3 0.00 0.00 0.00 68 1018.8
20260906013035 62 21 16.5 21.7 0.00 0.00 0.00 66 1018.7
20260906011535 63 15 13.9 21.7 0.00 0.00 0.00 63 1018.7
20260906010036 64 21 16.5 22.6 0.00 0.00 0.00 62 1018.7
20260906004537 66 29 17.4 23.5 0.00 0.00 0.00 59 1018.7
20260906003034 67 17 15.6 22.6 0.00 0.00 0.00 57 1018.8
20260906001534 67 15 17.4 21.7 0.00 0.00 0.00 56 1018.7
20260906000039 68 15 14.8 21.7 0.00 0.00 0.00 54 1018.8
20260905234537 69 5 14.8 20.9 0.00 0.00 0.00 52 1019.0
20260905233033 70 46 12.2 19.1 0.00 0.00 0.00 47 1018.9
20260905231538 71 15 13.9 20.0 0.00 0.00 0.00 48 1018.8
20260905230036 71 23 14.8 20.0 0.00 0.00 0.00 47 1018.7
20260905224607 71 9 15.6 21.7 0.00 0.00 0.00 47 1018.6
20260905223043 72 20 8.7 16.5 0.00 0.00 0.00 43 1018.6
20260905221537 72 32 8.7 15.6 0.00 0.00 0.00 43 1018.8
20260905220033 72 43 13.0 17.4 0.00 0.00 0.00 43 1018.8
20260905214538 73 44 7.0 9.6 0.00 0.00 0.00 41 1018.9
20260905213041 72 12 2.6 7.0 0.00 0.00 0.00 43 1019.1
20260905211542 72 342 6.1 9.6 0.00 0.00 0.00 41 1019.3
20260905210047 71 302 7.0 12.2 0.00 0.00 0.00 40 1019.1
20260905204539 71 300 4.3 11.3 0.00 0.00 0.00 40 1019.2
20260905203038 71 305 7.8 13.9 0.00 0.00 0.00 39 1019.4
20260905201535 70 44 7.8 12.2 0.00 0.00 0.00 40 1019.5
20260905200036 69 329 7.8 15.6 0.00 0.00 0.00 42 1019.7
20260905194541 69 355 9.6 14.8 0.00 0.00 0.00 43 1019.7
20260905193037 69 340 7.8 16.5 0.00 0.00 0.00 43 1019.6
20260905191536 69 313 7.0 16.5 0.00 0.00 0.00 43 1019.9
20260905190035 68 300 4.3 13.0 0.00 0.00 0.00 44 1020.2
20260905184547 68 344 8.7 13.0 0.00 0.00 0.00 44 1020.2
20260905183034 67 315 5.2 11.3 0.00 0.00 0.00 48 1020.4
20260905181535 67 265 6.1 9.6 0.00 0.00 0.00 49 1020.3
20260905180041 66 289 7.8 10.4 0.00 0.00 0.00 51 1020.5
20260905174537 65 281 5.2 12.2 0.00 0.00 0.00 54 1020.3
20260905173041 65 322 6.1 12.2 0.00 0.00 0.00 56 1020.3
20260905171535 65 329 6.1 11.3 0.00 0.00 0.00 57 1020.3
20260905170033 64 311 3.5 9.6 0.00 0.00 0.00 58 1020.4
20260905164534 63 282 7.0 10.4 0.00 0.00 0.00 61 1020.4
20260905163037 62 360 6.1 11.3 0.00 0.00 0.00 65 1020.2
20260905161550 62 355 4.3 9.6 0.00 0.00 0.00 65 1020.4
20260905160035 61 30 6.1 9.6 0.00 0.00 0.00 69 1020.3